GEFSMA_500_meanwind_006.txt.gz
Wind_Speed
15 15 15 16 15 15 15 12 9 12 14 14 15 16 18 19 20 21 22 22 22 22 22 19 16 14 13 14 14 14 13 13 14 14 12 13 13 12 11 9 8 8 9
13 15 16 16 15 15 15 13 10 11 15 16 16 17 18 19 19 20 20 20 19 19 20 20 18 16 15 15 16 17 16 14 13 13 13 13 12 12 11 10 9 9 9
11 13 15 16 15 14 13 12 11 11 15 17 17 18 18 18 20 19 19 20 20 19 19 20 19 17 16 16 16 19 18 16 15 14 14 13 12 12 12 11 10 9 9
12 12 15 17 17 14 11 10 11 13 14 17 17 17 17 18 17 18 18 18 19 19 19 19 18 17 17 16 17 19 19 17 16 16 15 13 12 12 12 11 10 9 9
13 13 17 19 19 18 15 11 10 13 15 18 18 16 16 17 16 15 15 15 16 17 17 19 18 18 17 17 19 19 19 18 17 17 16 15 13 12 11 10 9 9 8
14 17 20 21 21 21 20 16 13 15 18 20 20 19 16 16 16 14 15 15 16 16 17 18 18 18 18 18 19 20 20 19 19 19 18 16 14 12 11 11 10 9 10
17 21 23 23 23 23 23 21 18 17 19 21 22 21 18 16 16 15 15 16 16 15 16 18 18 18 19 19 19 20 20 20 20 21 20 19 17 15 14 13 12 11 11
20 23 26 26 25 26 26 25 22 20 20 23 24 23 20 17 16 15 14 15 16 16 15 17 20 20 21 21 19 19 19 20 21 22 22 21 19 17 17 16 15 13 13
23 25 26 26 26 27 27 26 24 23 23 24 25 24 22 19 17 16 14 14 17 18 17 18 20 22 24 23 22 21 20 19 20 22 22 22 20 18 18 18 17 16 16
25 25 26 25 24 25 26 25 24 23 24 26 27 27 25 20 17 17 15 14 16 17 18 19 20 22 25 25 23 22 20 19 19 19 19 19 19 19 19 18 19 19 18
25 25 25 25 24 24 26 26 25 23 25 28 29 27 25 22 19 19 17 15 15 14 15 17 19 20 24 26 25 23 20 19 19 18 17 17 18 19 18 17 18 19 19
24 24 25 26 25 25 25 25 23 23 26 30 31 27 25 22 21 20 18 17 15 13 13 14 16 17 20 23 24 23 21 20 20 18 18 17 17 18 18 18 17 17 18
24 25 26 25 25 24 23 22 21 23 26 29 31 28 25 22 22 21 20 18 17 17 15 14 14 15 17 20 22 22 22 21 21 20 20 19 18 17 17 16 15 15 15
25 25 25 24 24 23 21 19 19 21 24 27 28 26 22 21 22 23 22 22 21 20 19 17 15 15 16 18 20 22 22 22 22 21 20 18 17 16 14 13 13 14 16
24 24 24 24 23 22 20 16 15 17 19 21 23 21 19 19 20 20 22 25 25 24 23 22 21 19 18 18 18 19 19 20 21 20 19 19 18 17 16 15 15 16 17
24 23 23 23 22 20 18 15 13 14 17 19 21 22 22 22 21 20 21 24 26 27 27 27 25 24 22 21 20 19 19 20 20 20 20 19 19 19 18 18 18 18 18
25 23 22 21 20 19 16 15 14 15 17 18 21 22 23 22 19 18 19 22 26 28 30 31 30 28 25 24 24 24 23 22 22 22 22 22 22 22 22 21 21 20 19
25 23 21 20 19 19 17 14 13 14 15 16 17 19 21 21 20 18 17 19 24 29 31 32 32 31 28 27 25 25 25 24 24 25 25 24 24 24 23 22 22 21 21
22 21 20 20 19 20 20 18 16 16 15 16 16 16 18 20 21 22 22 20 22 28 34 36 35 33 30 28 26 27 26 25 24 25 26 25 25 25 24 24 23 23 23
19 20 20 20 20 21 21 22 21 20 19 18 18 19 20 20 21 23 24 25 24 28 34 38 39 36 33 32 31 30 28 26 25 26 27 27 26 25 25 26 26 26 25
20 20 20 20 21 22 23 24 25 25 23 22 21 21 21 22 23 23 24 25 25 28 33 38 41 39 37 35 34 32 29 27 27 27 28 28 28 28 28 27 28 28 28
20 19 18 19 20 22 23 25 26 26 26 24 23 23 22 22 23 23 23 24 24 27 33 40 43 41 38 36 35 34 30 28 29 30 28 29 29 30 30 30 30 30 31
20 20 20 19 19 22 23 24 25 26 26 25 24 24 24 24 24 24 24 24 22 22 28 35 40 41 40 39 39 37 34 32 32 31 30 31 32 33 33 32 33 34 34
23 23 22 21 22 21 22 22 22 23 24 25 25 25 25 26 26 26 25 24 22 22 24 31 36 39 38 37 39 39 36 32 32 33 33 33 33 33 33 32 33 34 35
22 22 22 22 22 21 21 22 23 23 24 25 25 26 26 26 27 28 27 25 23 22 22 26 31 32 31 30 30 31 33 33 31 32 34 34 35 34 32 31 32 32 34
21 20 21 22 22 21 22 23 23 24 25 25 25 25 26 27 27 27 27 26 25 23 22 22 24 24 23 23 24 26 30 32 34 35 35 35 36 35 32 33 34 34 34

GEFSMA_500_meanwind_012.txt.gz
Wind_Speed
10 8 9 10 10 10 9 8 9 9 8 9 12 15 17 19 19 20 20 19 19 20 20 19 19 18 17 15 14 14 16 17 17 19 20 20 18 16 15 13 10 9 9
12 12 12 13 12 13 13 11 9 8 7 8 11 14 18 21 23 23 23 23 23 23 23 22 21 21 21 20 18 17 17 19 19 19 20 21 21 18 16 15 12 10 9
15 15 15 15 14 15 16 17 15 11 9 9 10 13 17 20 22 23 24 24 24 24 23 23 21 20 20 21 21 19 19 20 20 19 18 19 20 18 17 15 13 12 10
18 18 17 17 16 17 18 20 20 17 15 13 13 14 17 20 22 23 23 23 23 23 23 23 22 21 20 21 22 20 19 21 21 19 17 17 17 16 15 15 14 13 12
19 20 20 19 19 19 20 21 21 21 20 18 17 18 19 21 22 22 23 23 24 24 24 24 24 22 21 20 22 21 20 21 22 21 18 17 17 16 15 15 15 14 13
20 21 21 21 22 22 23 23 23 24 24 22 21 21 22 23 23 22 23 23 24 24 24 25 24 22 21 20 18 18 19 21 23 22 20 19 18 17 16 15 14 14 13
21 21 22 23 24 25 25 26 25 26 26 26 24 24 23 24 24 23 22 23 24 24 24 24 23 22 22 20 17 16 18 21 24 24 23 21 20 19 18 16 15 14 14
21 21 22 24 26 27 28 28 27 27 27 27 27 27 26 25 24 23 23 23 24 24 24 24 23 22 22 21 19 18 19 22 24 25 24 24 22 21 20 18 17 16 15
21 22 24 25 27 28 28 28 27 27 27 28 28 28 28 28 25 25 25 24 24 24 24 24 23 22 22 21 20 20 20 21 23 24 25 25 24 24 23 21 19 18 17
24 25 25 26 27 27 26 26 26 26 27 27 27 27 28 28 28 26 26 26 25 24 24 24 24 23 22 21 20 20 21 21 22 23 24 25 25 25 24 23 22 21 20
25 25 25 26 25 25 24 24 25 26 27 27 28 28 28 28 27 27 26 26 25 24 24 24 25 24 23 22 22 22 22 22 22 23 23 24 25 25 26 25 24 23 22
24 25 25 25 24 23 24 25 26 27 27 27 27 28 29 30 28 27 26 25 25 25 24 24 25 25 24 23 23 24 25 25 24 24 24 24 24 24 25 26 26 26 25
24 25 25 24 23 23 24 25 26 26 25 25 26 27 28 29 28 27 25 25 25 25 24 23 23 23 23 24 23 25 26 27 26 25 24 24 23 23 23 24 25 26 26
24 25 25 24 24 24 25 26 26 25 24 23 24 25 27 27 27 26 25 25 25 25 24 22 20 20 20 21 22 23 25 27 27 26 24 24 23 23 23 23 23 24 24
25 26 26 26 25 25 26 26 25 24 23 22 21 21 23 25 25 24 23 25 25 25 25 23 21 19 18 18 19 20 21 24 26 26 25 25 24 24 24 23 22 21 21
26 28 29 28 27 27 26 24 24 23 22 21 19 18 19 20 20 19 20 19 22 24 25 25 24 21 20 19 18 18 19 21 25 26 26 26 26 25 25 23 22 21 20
26 27 27 27 26 25 24 23 22 22 21 20 19 18 18 18 18 18 18 17 19 22 24 26 26 25 24 23 22 20 18 19 21 24 26 27 27 27 26 25 24 23 22
22 22 23 23 23 23 23 23 22 21 20 20 19 19 18 18 19 20 20 19 20 21 23 26 28 30 30 28 26 24 23 22 21 22 23 25 26 27 27 26 25 25 24
18 20 21 21 21 21 21 21 21 20 20 20 20 20 19 18 18 19 20 21 21 22 23 25 27 30 32 32 30 29 28 27 26 24 24 24 25 26 27 26 26 26 26
18 18 19 20 20 21 21 21 21 20 20 21 22 22 21 20 19 18 19 21 22 23 23 24 25 28 31 32 32 31 31 31 30 28 27 27 27 27 27 27 27 27 28
19 19 19 19 20 21 22 22 22 22 22 22 24 25 24 23 21 21 20 21 22 24 25 25 26 27 29 31 33 34 34 34 33 32 31 30 28 28 29 30 30 30 31
20 20 20 20 20 20 21 21 22 22 23 23 24 25 26 25 24 23 23 23 24 24 25 26 25 26 28 31 34 36 37 36 34 35 33 32 30 31 32 32 32 33 33
21 21 21 21 21 21 21 22 21 22 22 23 24 25 26 26 26 25 25 25 25 25 25 25 26 25 27 29 32 36 38 39 38 37 35 34 34 34 33 33 34 34 35
21 22 22 22 22 21 21 22 22 22 23 23 23 24 25 26 26 26 26 26 26 26 26 26 26 27 26 26 30 34 36 39 40 40 38 36 36 36 34 34 34 35 36
20 21 21 21 21 20 20 20 21 22 22 22 22 23 24 25 25 25 25 26 26 26 26 26 26 26 26 25 25 29 33 37 40 41 41 39 39 39 38 37 36 37 37
19 19 19 19 19 19 19 19 20 21 21 21 22 23 23 24 24 24 24 24 25 25 25 25 25 25 24 24 23 24 28 33 39 42 43 43 43 43 42 41 41 40 39

GEFSMA_500_meanwind_018.txt.gz
Wind_Speed
10 10 9 8 7 7 6 5 4 4 4 4 4 5 7 11 14 16 18 18 19 19 18 18 18 18 17 17 16 14 13 13 14 15 16 19 20 20 20 19 17 15 14
13 12 12 11 10 10 10 9 7 6 6 5 6 6 8 11 15 18 20 22 23 23 23 23 23 22 22 21 20 19 18 17 16 16 17 19 21 22 22 21 19 17 15
16 15 14 13 13 13 14 13 12 10 9 9 9 9 11 13 15 18 21 24 25 26 27 27 26 26 26 25 24 23 22 21 19 18 18 19 20 23 24 23 21 19 18
19 17 16 16 16 17 17 17 15 14 13 13 13 13 14 15 17 19 21 24 27 28 29 30 29 29 28 28 26 24 23 23 22 21 21 20 20 21 24 25 23 21 20
21 20 20 19 19 20 20 19 19 18 17 17 17 17 17 18 19 21 23 25 27 28 29 30 30 29 28 28 26 24 23 23 24 23 22 22 21 20 22 25 24 22 20
24 23 23 23 22 22 22 21 21 20 20 20 20 20 21 21 21 23 24 25 26 27 28 28 29 28 27 27 26 25 23 23 24 24 24 23 22 21 21 22 21 20 19
27 26 26 25 25 24 24 23 23 23 23 23 23 23 23 24 24 25 25 26 26 27 28 27 27 27 26 26 26 26 24 23 23 25 25 24 23 22 21 20 19 18 18
31 29 27 26 26 25 24 24 24 25 25 25 25 25 26 26 26 26 26 26 27 27 27 27 26 26 25 26 26 25 25 24 23 24 25 25 25 24 23 22 20 19 18
34 32 29 27 26 25 25 25 25 26 26 25 25 26 26 27 27 27 26 26 26 27 27 27 26 26 26 26 25 25 25 25 24 24 24 25 26 25 25 24 23 21 20
36 34 31 28 26 25 25 26 26 26 26 26 26 26 26 27 28 28 27 26 26 27 27 27 28 27 26 26 26 25 26 27 26 25 25 26 26 27 26 26 25 23 22
35 34 31 29 27 25 25 26 26 26 25 25 26 26 26 27 28 29 29 28 27 26 26 27 28 28 26 26 26 26 27 28 27 27 26 26 27 28 28 27 27 26 25
37 35 32 29 26 25 25 25 26 25 25 25 26 27 27 27 28 28 29 29 28 27 26 26 26 27 26 26 26 27 27 28 28 28 27 27 27 28 28 28 28 28 28
39 36 31 27 23 23 24 24 25 25 25 25 26 26 27 27 27 27 27 28 28 26 25 25 24 26 26 25 26 26 27 28 29 29 29 28 28 27 27 27 28 28 29
36 32 26 21 19 22 24 25 25 25 25 25 25 25 26 25 25 25 26 26 26 25 24 23 24 26 26 25 25 26 27 28 29 30 30 31 30 29 28 27 27 26 27
28 21 17 16 20 23 25 26 26 26 25 25 24 24 24 24 24 24 24 24 24 24 23 23 24 25 27 25 24 25 26 27 29 30 31 32 32 31 29 28 27 25 25
15 13 15 18 22 24 25 25 25 25 24 24 23 23 22 22 22 21 21 21 22 23 23 23 24 25 27 25 24 23 24 24 26 27 28 30 32 32 31 29 27 25 24
11 14 17 19 21 22 22 22 22 22 22 22 22 21 21 20 19 20 19 19 20 20 21 23 24 24 26 26 24 23 22 21 21 22 23 25 27 29 30 29 28 26 25
11 13 15 17 18 19 19 19 19 20 20 20 21 20 20 19 18 19 19 19 19 19 20 21 23 24 26 28 27 26 23 22 21 20 20 21 23 25 27 28 29 28 27
10 12 15 16 17 18 18 18 19 19 20 20 20 20 20 19 18 19 19 20 20 20 21 21 22 25 26 27 28 27 27 25 24 23 23 22 22 23 24 26 27 28 29
10 13 15 16 17 18 18 18 19 19 20 20 21 21 21 20 20 20 20 20 20 20 21 22 22 23 25 26 28 30 30 29 28 28 27 26 25 24 24 25 26 27 29
13 15 16 17 18 18 18 19 19 20 21 21 22 22 22 22 22 21 21 21 21 20 21 21 22 21 22 24 26 28 28 29 30 30 30 30 29 28 27 27 27 27 28
16 17 18 19 20 19 19 20 20 21 22 22 22 23 24 24 23 23 23 23 23 22 22 21 21 22 22 21 22 24 25 27 28 29 31 32 32 31 31 31 30 30 30
17 19 20 20 21 21 21 21 21 21 22 23 23 24 23 24 25 25 25 25 24 24 23 23 22 22 23 24 24 24 25 26 27 28 30 32 33 34 34 34 34 34 34
19 20 21 21 21 21 21 21 21 22 23 23 24 24 24 24 24 25 25 26 26 25 25 24 24 24 24 24 25 25 25 25 26 28 30 31 33 35 37 37 37 37 37
20 21 21 22 22 22 22 22 22 23 23 24 24 23 23 23 23 24 25 25 25 26 26 26 25 25 24 24 24 25 25 26 26 27 28 30 32 34 36 38 39 40 40
19 20 21 22 22 22 22 22 23 23 24 24 24 23 24 24 23 23 24 24 24 24 24 24 25 24 24 24 24 25 25 26 26 27 27 28 30 32 34 36 39 41 42

GEFSMA_500_meanwind_024.txt.gz
Wind_Speed
15 15 14 15 13 12 11 9 7 7 7 7 7 6 6 7 8 9 10 12 13 14 15 16 17 17 17 16 16 15 14 13 13 13 13 13 14 17 18 18 18 17 15
19 18 18 18 17 16 15 13 12 11 10 10 10 9 9 9 10 11 12 13 15 16 18 19 20 21 21 21 20 19 18 17 17 16 16 15 15 16 18 20 20 19 18
22 22 21 21 21 19 18 16 15 15 14 14 13 12 12 12 12 13 14 16 17 18 19 20 22 23 24 25 24 24 22 21 20 20 19 18 17 17 18 20 21 21 21
24 24 24 24 24 23 22 20 19 18 17 17 16 15 14 14 15 16 17 18 19 20 21 22 23 24 25 26 27 27 26 25 23 22 21 20 19 19 19 20 21 22 22
24 24 25 26 26 25 25 24 23 22 21 20 19 18 17 17 18 19 20 20 21 22 23 23 23 24 25 26 27 28 28 27 26 24 22 21 21 21 20 20 20 22 23
26 26 26 28 28 29 29 28 27 26 24 23 21 20 20 20 21 22 23 24 24 24 25 25 25 25 25 25 26 27 27 27 26 25 23 22 22 22 21 21 21 21 22
28 29 29 30 31 31 32 31 30 28 26 24 23 22 22 23 23 24 25 26 26 25 26 25 25 25 25 25 25 26 26 26 26 25 23 22 21 21 22 21 21 21 21
29 30 30 31 32 32 33 33 32 29 27 25 24 23 24 24 25 24 25 27 27 26 27 26 25 25 24 24 24 25 26 25 26 25 24 23 22 21 21 21 21 21 20
32 31 32 33 33 33 33 34 32 29 28 26 25 25 25 25 26 25 26 27 27 26 27 27 26 24 23 23 24 25 25 25 25 25 24 23 21 21 21 21 21 21 21
35 35 35 35 34 33 33 33 33 31 29 27 26 26 26 26 27 27 27 27 28 28 27 27 27 26 23 22 24 24 24 24 24 24 24 23 22 21 20 20 21 22 22
38 38 37 37 35 34 33 33 33 33 31 29 27 26 26 26 27 27 28 28 28 28 27 27 27 28 26 24 25 25 25 25 25 24 23 23 23 21 20 21 22 23 23
41 39 37 36 36 33 34 34 35 35 32 29 27 26 26 27 28 28 28 30 29 28 27 27 27 27 27 25 24 25 25 24 25 25 24 24 23 23 22 22 22 24 25
40 38 35 35 35 35 35 36 37 36 33 29 27 26 26 27 28 29 29 30 30 29 27 26 26 26 26 24 23 23 23 23 24 24 24 24 23 23 23 23 24 25 26
38 37 36 35 36 36 36 36 37 36 32 28 27 26 27 28 28 29 29 29 29 29 27 26 25 25 24 23 21 21 22 22 23 23 23 23 23 23 23 24 25 25 26
38 37 37 36 36 37 37 37 36 34 30 27 26 27 28 29 29 29 29 29 28 28 27 25 24 23 23 22 20 20 20 21 22 22 22 23 23 23 23 24 25 26 27
36 36 36 36 36 35 33 31 30 27 24 24 25 27 27 28 28 28 28 28 27 26 25 24 23 22 22 22 20 20 20 20 20 21 21 22 23 23 24 25 25 27 28
31 31 29 28 26 25 24 22 20 19 20 22 23 24 25 26 26 27 27 27 26 25 23 23 22 21 21 21 20 20 21 22 21 20 21 21 22 23 24 24 25 27 28
15 15 15 15 15 15 15 16 16 17 19 21 22 23 23 24 24 25 26 25 25 23 23 22 22 21 21 21 21 20 21 21 21 20 20 19 19 20 21 22 22 24 25
6 7 7 8 9 11 13 15 16 18 19 21 21 22 22 22 23 24 25 25 24 23 23 23 22 22 20 20 20 20 20 21 21 21 21 20 19 19 19 19 19 20 22
2 4 6 8 10 11 13 15 17 18 19 20 21 21 22 22 22 23 24 24 23 23 23 22 22 22 21 20 19 18 19 21 22 22 23 23 22 22 21 21 21 21 22
6 7 9 11 12 14 15 17 18 19 20 21 21 21 21 22 22 23 23 23 23 23 23 23 22 22 20 19 18 18 19 20 23 24 24 24 24 24 24 24 25 25 25
10 11 12 14 15 17 18 20 21 21 22 22 22 22 22 22 22 23 23 23 23 23 23 22 22 21 20 19 18 17 17 18 20 21 23 24 25 26 26 27 28 28 28
13 14 15 17 18 19 20 21 22 23 23 23 23 23 22 22 21 22 22 22 23 23 22 22 22 21 21 19 18 17 17 17 17 17 18 21 23 26 26 27 28 30 31
15 16 18 19 20 21 21 22 22 23 23 24 24 23 22 21 21 22 21 21 22 22 22 21 21 21 20 19 19 18 18 17 17 17 17 19 20 22 24 26 28 29 31
15 16 17 18 20 21 21 22 23 23 23 23 23 22 22 21 21 22 21 20 19 19 19 20 20 20 19 19 19 19 18 18 18 18 19 20 21 22 23 25 27 28 30
15 16 17 17 18 19 20 20 20 21 21 22 22 22 21 21 21 21 20 19 18 18 17 17 17 18 18 18 18 18 18 18 19 19 20 21 22 23 24 26 27 28 29

GEFSMA_500_meanwind_030.txt.gz
Wind_Speed
19 20 20 19 18 17 16 15 15 13 11 10 9 9 8 8 8 8 8 8 9 9 9 10 10 10 11 11 12 12 13 13 13 12 12 12 11 12 14 15 17 18 17
19 21 22 21 21 20 19 19 18 17 16 14 13 12 12 12 12 11 11 11 11 11 12 12 13 13 13 14 15 16 16 16 16 16 16 15 15 14 15 16 17 19 20
19 20 21 22 23 23 22 22 21 20 20 18 16 16 15 16 15 14 14 14 14 14 14 14 15 15 16 16 17 18 19 20 20 20 20 19 19 18 17 17 17 19 21
20 20 22 23 23 24 24 23 23 23 23 22 21 19 18 18 18 18 17 16 16 16 16 16 17 17 18 18 18 19 20 22 22 23 23 23 22 21 20 19 19 19 20
22 22 23 23 24 24 25 25 24 25 25 25 24 23 22 21 20 20 20 19 18 18 18 18 19 19 20 20 20 21 21 23 24 24 24 25 24 24 23 22 21 20 20
25 25 24 24 25 25 25 25 25 25 27 28 27 26 26 25 23 22 22 21 21 21 20 20 20 21 21 22 22 22 23 23 24 24 25 25 26 25 24 23 23 22 22
28 27 27 26 26 26 26 25 26 26 27 28 29 29 28 28 27 25 24 23 23 23 22 21 22 22 22 22 23 23 23 23 24 24 25 26 26 26 25 24 23 24 23
30 29 29 27 27 27 27 26 26 26 25 26 29 31 30 29 29 28 27 25 24 24 23 23 23 23 23 23 24 24 23 23 24 24 25 25 26 26 26 25 24 24 24
31 29 29 28 27 27 27 27 26 26 25 25 27 30 31 31 29 29 29 27 25 24 24 23 24 24 24 25 24 24 24 24 23 24 24 25 25 26 26 26 25 25 25
30 28 29 28 28 27 27 25 25 25 26 26 27 28 30 31 31 31 30 30 28 26 25 23 23 24 25 26 25 25 25 25 25 24 24 25 25 26 27 26 25 25 25
32 30 28 27 28 27 26 27 26 27 27 27 27 28 29 30 32 32 32 31 30 28 26 24 23 23 25 26 26 25 25 25 25 25 25 25 25 26 27 27 26 26 25
32 32 30 27 27 27 25 26 26 27 27 27 28 29 29 30 32 33 33 32 30 28 27 27 25 23 23 25 26 25 25 24 25 25 25 26 26 27 27 27 28 27 26
35 35 32 30 28 27 26 26 26 27 28 28 29 30 31 32 33 34 34 33 30 28 27 28 28 25 23 23 24 24 24 24 24 24 24 25 26 27 28 28 29 28 28
37 36 34 32 31 30 28 27 27 27 27 28 30 31 32 33 35 35 35 33 30 28 27 27 27 25 23 22 23 23 23 23 23 23 23 24 25 27 28 29 29 29 29
37 35 34 33 33 31 29 29 28 28 28 29 31 32 34 35 35 36 35 33 30 28 26 26 25 24 22 22 21 21 22 21 22 22 23 23 25 26 27 28 29 30 30
32 32 32 32 31 31 30 30 30 30 29 30 32 33 34 33 33 34 33 31 28 27 26 25 23 23 21 21 20 20 21 21 21 21 21 22 23 25 26 27 28 29 29
27 27 28 28 28 28 28 29 29 29 31 32 32 33 32 31 31 30 28 26 25 24 24 23 21 21 20 20 19 19 20 21 21 21 22 23 23 24 25 26 27 29 29
17 18 19 21 22 22 23 24 25 25 26 27 27 27 26 25 24 24 23 22 22 22 22 21 19 19 19 19 19 19 20 20 21 21 22 23 24 24 24 25 26 27 28
8 9 10 11 13 13 15 16 17 18 18 18 18 18 18 19 19 19 19 20 20 20 19 19 18 18 19 19 19 20 20 20 20 21 23 24 25 25 25 24 24 25 25
4 5 5 6 8 9 10 11 13 14 14 14 15 15 16 17 17 18 18 19 19 18 18 18 18 19 19 19 19 20 20 20 20 21 22 23 24 25 24 24 24 24 24
5 6 7 7 8 10 11 11 13 14 15 16 16 17 17 17 18 18 18 18 18 18 18 19 19 19 19 19 19 19 20 19 19 19 19 21 22 24 25 25 25 26 26
10 11 12 13 14 14 15 15 16 17 18 18 18 18 18 18 18 18 19 18 18 18 19 19 19 19 19 19 19 19 19 18 18 18 18 18 19 22 24 25 25 26 27
12 13 14 15 17 18 19 19 20 20 21 21 21 21 20 20 20 20 19 19 18 18 18 18 18 18 18 19 19 19 18 18 18 17 17 17 17 19 21 23 25 27 28
14 15 15 17 18 20 21 22 23 23 23 22 22 22 22 21 21 20 20 19 18 18 18 17 17 17 17 18 19 19 18 18 18 18 17 17 17 17 18 20 21 24 26
14 15 15 17 18 19 21 22 23 23 23 23 23 22 22 22 21 20 19 19 18 17 17 16 15 15 16 17 17 17 17 17 17 17 16 16 17 18 19 21 23 24 26
14 14 15 15 16 17 18 19 19 20 21 21 20 21 21 21 20 19 19 18 17 16 16 15 14 14 14 14 15 15 15 15 15 16 16 16 17 18 19 21 22 24 26

GEFSMA_500_meanwind_036.txt.gz
Wind_Speed
16 17 17 17 16 16 15 14 12 11 10 10 9 8 7 6 5 5 4 5 5 5 5 5 5 5 5 6 6 7 7 7 8 9 9 10 10 10 11 11 12 14 15
18 18 18 18 18 18 17 17 15 14 14 13 13 12 11 10 8 8 7 7 7 7 7 7 6 6 6 7 7 8 9 9 10 11 12 12 13 14 14 15 15 15 17
20 20 20 20 20 20 19 18 17 17 16 16 16 15 14 13 13 12 11 10 9 9 10 9 9 9 8 8 9 9 10 10 11 12 14 15 16 17 17 18 18 18 18
22 23 23 23 23 22 22 21 19 18 18 19 18 18 17 17 16 15 14 13 13 12 12 12 12 11 11 10 10 10 11 11 12 14 15 16 17 19 20 20 21 21 20
25 25 26 26 25 25 24 23 22 21 21 21 21 20 20 19 19 19 18 17 16 16 15 15 14 14 13 12 12 12 12 13 14 15 16 17 18 19 21 22 23 23 23
28 28 29 29 29 28 27 26 26 24 23 23 23 22 21 22 22 23 22 21 19 19 18 18 17 16 15 14 14 13 13 14 15 16 17 18 19 20 22 23 25 25 25
30 30 32 31 32 31 31 30 29 28 26 25 24 24 24 24 25 25 25 24 22 22 21 20 19 19 18 16 16 15 15 15 16 17 18 19 20 21 22 24 25 26 27
31 30 31 31 31 32 32 32 31 30 29 28 27 26 25 25 25 26 26 26 25 24 23 22 21 21 20 19 18 17 17 17 18 18 19 20 21 21 22 23 24 26 27
34 33 32 31 31 31 32 33 32 31 31 30 29 28 27 26 25 25 26 27 27 26 25 24 23 23 22 21 20 19 19 19 19 19 20 21 22 22 23 23 24 25 27
36 35 34 32 32 31 30 30 32 31 32 32 31 30 29 28 27 25 26 27 27 27 26 26 25 25 24 23 22 21 21 21 21 21 21 22 22 23 23 23 24 25 26
39 37 35 33 29 27 27 28 31 32 31 31 31 30 30 29 28 28 27 27 27 27 27 27 28 27 27 26 24 23 22 22 22 22 22 23 23 23 23 24 24 25 26
38 37 35 33 30 28 27 26 26 28 30 30 30 30 31 30 30 30 29 28 28 29 29 29 30 30 29 27 26 25 24 24 23 23 23 24 24 23 23 24 25 25 26
36 34 33 32 30 28 27 27 28 27 28 28 29 30 31 31 31 32 32 32 31 31 30 31 32 31 30 29 28 27 26 25 24 24 24 24 23 23 24 24 25 26 27
34 33 33 32 32 32 31 30 30 28 29 29 29 30 31 32 32 33 34 34 33 33 33 33 33 33 32 30 30 28 27 25 24 24 24 24 23 23 23 23 24 25 26
32 33 33 34 35 35 35 33 32 31 31 31 31 32 33 32 32 33 34 34 34 33 33 33 34 33 32 31 30 28 27 26 25 24 24 23 23 22 22 22 23 24 25
31 32 34 34 35 36 36 35 34 34 34 34 34 34 35 34 34 34 34 34 34 34 34 34 33 33 32 30 29 27 26 25 25 24 23 23 22 22 22 22 22 23 23
27 29 31 31 33 33 34 34 34 34 33 33 34 34 35 34 33 33 33 33 34 34 34 33 31 31 30 29 27 25 24 24 24 23 23 22 23 23 22 22 22 22 23
19 21 22 24 26 27 28 29 30 31 31 31 31 32 33 32 31 31 31 31 31 31 30 29 29 27 26 25 23 23 23 23 23 22 22 22 22 22 22 22 23 23 23
11 12 14 16 17 19 20 22 24 25 26 26 27 28 28 28 27 27 27 27 27 27 26 24 23 23 22 20 20 21 21 21 21 21 21 21 21 21 21 22 23 24 24
6 7 8 10 11 12 14 16 18 18 19 21 22 22 22 22 22 21 21 20 20 19 19 18 18 17 17 17 18 19 20 21 20 20 20 20 21 21 21 21 21 22 23
7 7 8 8 9 9 10 11 12 14 15 16 16 16 16 16 15 16 15 15 15 14 14 14 14 15 16 17 18 19 19 19 19 19 19 20 20 20 20 20 20 21 22
8 8 8 9 9 11 12 12 12 12 12 13 13 14 14 13 13 14 13 13 12 12 13 13 14 14 15 16 17 18 18 18 18 19 19 19 19 19 19 20 20 20 21
10 10 10 10 10 11 13 13 14 15 14 14 14 14 14 14 14 14 13 13 13 13 13 13 14 14 15 16 16 16 17 17 17 18 18 18 18 18 18 18 19 20 21
12 12 13 12 12 12 13 13 14 14 15 16 16 16 16 15 15 15 14 13 13 14 14 13 14 14 14 15 15 15 16 16 16 17 17 17 17 17 17 18 18 19 19
16 15 14 13 12 12 12 13 13 14 15 15 16 16 16 16 16 16 16 15 14 14 14 13 13 13 13 14 14 14 14 14 14 14 14 14 15 15 16 17 17 18 19
19 18 17 15 14 13 12 11 11 12 13 13 14 15 15 16 16 16 16 15 14 13 13 12 12 13 12 12 12 12 12 11 11 11 11 11 12 13 14 15 15 16 17

GEFSMA_500_meanwind_042.txt.gz
Wind_Speed
20 19 17 16 15 14 13 13 12 11 11 10 9 7 6 5 5 5 5 5 5 5 5 6 5 5 6 6 6 5 5 5 5 6 6 6 6 6 7 7 8 9 10
23 22 20 18 17 16 15 15 14 14 14 13 13 12 11 10 9 8 8 8 8 8 8 7 7 7 8 8 8 8 8 8 8 8 8 8 8 9 9 10 11 11 12
27 25 23 21 20 18 17 17 17 16 17 16 16 15 14 14 13 13 12 11 11 11 10 10 10 10 10 10 10 10 10 10 10 10 10 11 11 11 12 12 13 14 14
30 28 26 25 23 21 20 19 18 18 18 19 18 18 17 16 16 16 16 15 15 14 14 13 13 13 12 12 12 12 12 12 12 12 12 12 12 13 13 14 14 15 16
32 31 30 28 26 24 23 22 21 21 21 20 20 20 20 19 18 18 19 18 18 18 17 17 16 16 15 15 14 14 14 14 14 14 14 14 14 14 15 15 15 16 17
35 33 32 31 29 26 25 25 24 24 24 23 23 22 22 21 21 21 21 21 21 21 21 20 20 19 19 18 17 17 17 16 17 17 16 16 16 16 16 16 17 17 18
35 33 32 32 31 29 27 26 26 26 27 26 25 24 24 23 23 23 24 24 24 23 23 23 23 22 22 21 21 20 19 19 19 19 18 18 18 17 18 18 18 18 19
36 35 33 31 30 29 28 27 27 26 26 27 28 27 26 25 25 25 25 26 25 25 25 25 25 25 24 24 24 23 22 21 20 20 20 20 20 19 19 19 19 20 20
38 36 36 33 30 27 26 26 25 25 26 27 29 29 29 28 27 27 27 27 27 26 26 26 27 26 26 26 25 25 24 23 23 22 22 22 22 22 21 21 21 21 21
40 38 36 35 32 29 29 28 27 27 26 26 27 28 30 30 29 27 27 28 28 28 28 27 28 28 28 27 27 27 26 25 24 24 24 24 23 23 23 23 22 22 22
43 40 38 36 34 32 31 29 27 26 26 26 27 29 30 30 30 30 29 29 29 29 29 28 28 29 29 29 28 28 27 27 26 26 26 26 25 25 25 24 23 23 23
41 40 38 36 35 34 33 31 29 28 26 26 27 28 30 31 29 30 31 31 31 31 30 29 29 29 29 28 28 28 28 28 28 28 28 28 27 27 26 26 25 24 24
37 38 38 37 35 34 33 33 31 29 27 27 26 26 28 30 32 32 32 32 32 32 32 31 31 30 29 29 29 29 29 29 30 30 30 30 29 28 27 27 26 25 25
35 35 36 35 34 34 33 32 32 30 29 28 28 27 28 29 32 33 34 34 34 34 34 33 32 31 31 31 31 31 32 32 32 32 31 31 30 29 28 27 26 25 25
31 32 33 33 33 33 33 32 32 32 31 31 30 30 30 30 31 32 33 34 35 35 35 34 34 34 34 33 32 33 33 33 33 33 32 32 30 28 27 26 25 25 25
27 29 30 31 32 33 33 34 34 34 34 34 34 33 33 33 33 33 33 33 34 36 36 34 35 35 35 34 34 34 33 32 33 33 31 31 29 27 26 26 26 25 25
23 24 26 29 31 32 33 34 35 36 36 36 37 36 36 35 35 34 34 35 34 34 34 34 35 35 34 34 34 34 32 31 31 30 29 29 27 25 24 24 24 24 25
17 19 22 25 27 29 31 33 34 35 36 36 37 37 37 38 38 37 36 35 35 34 33 33 34 33 33 32 31 31 30 30 30 28 26 25 23 23 23 23 24 24 25
12 14 17 20 22 24 27 29 30 32 33 34 34 35 35 35 36 36 35 35 34 34 33 32 32 31 30 30 29 28 27 26 25 24 23 22 21 21 21 22 23 23 24
6 9 11 14 16 19 21 23 24 27 29 29 30 31 32 32 32 31 32 32 31 31 31 30 29 28 27 26 25 24 22 21 20 19 19 19 19 20 20 21 22 23 23
3 5 7 9 12 15 17 19 21 22 23 25 26 27 27 28 28 28 27 26 26 26 26 25 25 24 22 21 20 19 18 18 18 17 17 18 18 19 19 20 21 21 22
6 5 6 8 11 13 15 16 18 20 20 21 22 23 24 23 24 25 25 24 22 21 21 21 20 19 17 17 16 16 16 16 16 16 16 16 17 18 18 19 19 20 21
9 9 8 9 10 11 13 15 16 16 17 18 19 19 20 20 21 23 23 22 21 19 18 18 17 17 16 15 15 15 14 14 14 14 15 15 16 16 17 17 17 18 19
12 11 11 11 11 10 11 12 15 15 16 16 18 17 18 19 19 20 19 18 18 18 17 17 17 16 15 14 14 14 13 13 13 13 13 14 14 15 15 15 16 17 18
15 14 14 14 12 11 9 10 12 13 15 16 16 17 17 18 18 18 18 18 17 17 16 16 15 14 14 14 13 13 12 12 12 12 12 12 12 12 12 13 13 14 15
17 17 16 16 14 12 11 10 10 11 13 14 14 15 16 17 18 18 18 18 17 16 15 15 14 14 14 13 13 12 11 11 11 10 10 10 9 9 10 10 10 11 12

GEFSMA_500_meanwind_048.txt.gz
Wind_Speed
25 24 23 22 21 21 20 19 17 15 14 13 11 10 9 8 8 8 8 7 7 6 6 6 5 5 5 4 4 4 4 4 4 4 5 5 6 6 6 6 6 6 7
30 28 28 26 25 24 23 22 21 19 18 16 15 14 13 11 10 10 9 9 9 8 8 8 7 7 7 6 6 7 7 7 7 8 8 8 8 9 9 9 10 10 10
34 33 32 30 28 27 26 25 24 22 21 19 18 17 16 15 14 13 12 12 11 11 10 10 9 9 9 9 9 9 10 10 10 11 11 11 11 12 12 12 12 13 13
38 37 35 34 32 30 29 27 26 25 24 22 21 20 19 19 18 17 16 15 14 14 13 13 12 12 12 12 12 12 12 12 13 13 14 14 14 14 15 15 15 15 15
38 39 38 36 35 33 32 31 29 28 27 25 24 23 22 21 21 20 19 18 17 17 17 16 15 15 14 14 14 14 15 15 15 15 16 16 16 17 17 17 18 18 18
40 39 38 37 37 36 34 33 32 31 30 28 27 26 25 24 23 23 22 21 20 20 19 19 18 18 17 17 17 17 17 17 17 18 18 18 19 19 19 19 20 20 20
44 43 40 38 38 36 35 34 33 32 32 30 29 27 26 26 25 25 24 24 23 22 21 21 20 20 20 20 20 20 20 20 20 20 20 21 21 21 21 21 21 22 22
44 43 42 40 38 36 35 33 32 31 30 30 29 28 26 26 27 26 27 26 26 25 24 24 23 22 22 22 23 23 22 22 22 22 23 23 23 23 23 23 23 23 24
44 43 41 40 38 37 35 33 32 31 31 29 29 28 26 25 27 27 27 27 27 26 26 26 25 24 24 24 24 24 24 24 24 24 24 25 25 25 25 25 25 25 25
43 41 42 41 39 37 36 33 32 31 30 29 28 28 27 26 26 26 27 27 28 27 27 27 26 25 25 25 26 26 26 26 26 26 26 26 26 27 27 27 27 27 27
40 39 39 39 38 37 36 34 33 31 30 29 29 28 27 27 26 26 25 26 27 27 27 27 27 26 26 25 26 27 27 27 28 28 28 27 28 28 28 28 29 29 29
36 36 37 37 36 35 36 35 34 32 31 31 29 29 28 27 27 27 26 26 27 28 27 27 27 27 27 25 26 27 28 28 28 28 28 29 29 29 29 30 30 30 31
31 33 34 35 35 33 33 34 35 33 32 32 32 29 29 29 29 29 28 29 29 29 29 28 27 27 28 27 27 27 28 28 28 28 29 29 29 30 30 31 31 32 32
27 29 31 32 34 33 33 32 33 33 31 30 30 30 30 29 29 30 30 30 31 31 30 29 29 29 29 29 28 29 29 30 29 29 29 30 31 31 32 32 33 33 33
23 25 27 29 31 32 32 32 33 33 33 31 29 30 30 30 29 29 29 29 30 30 31 31 31 31 31 30 30 30 30 31 31 31 31 32 32 33 33 33 33 34 33
19 21 23 25 28 29 30 31 31 32 33 31 31 30 30 31 31 30 29 29 29 29 29 30 31 31 31 31 32 32 32 32 31 32 32 33 33 34 34 34 33 32 31
13 15 18 21 24 25 27 28 28 29 30 31 32 32 31 32 32 32 31 31 30 30 29 29 30 30 31 32 32 32 32 32 32 32 32 32 34 33 32 31 30 30 30
7 10 13 15 18 21 23 25 26 28 29 31 32 33 33 32 32 33 33 33 32 31 30 29 29 28 29 30 29 28 29 30 30 30 31 31 30 29 29 28 27 26 25
5 6 8 11 13 16 19 21 24 26 28 30 32 32 32 32 32 33 33 34 33 32 31 30 29 29 28 28 27 27 27 28 28 29 29 28 27 26 26 24 23 22 21
6 5 6 8 11 14 17 19 21 23 26 28 30 31 32 32 32 32 33 33 32 31 31 30 30 28 27 27 27 27 27 26 25 25 25 24 24 23 21 20 19 19 19
9 7 6 7 9 11 14 16 19 21 23 25 27 29 30 31 31 31 30 30 30 30 30 29 29 28 27 27 27 25 24 23 23 22 21 20 19 17 16 16 16 16 16
11 10 9 9 9 11 13 15 17 19 21 22 23 25 26 27 28 29 29 28 28 28 27 26 26 25 25 24 23 23 22 20 20 19 18 16 15 14 14 13 13 13 13
13 12 11 11 11 11 12 13 15 16 18 19 20 22 23 25 26 26 26 25 26 25 24 22 21 20 20 20 19 18 18 18 18 17 16 15 13 12 11 11 10 11 12
17 16 15 14 13 12 12 12 13 14 15 17 18 20 21 22 22 23 23 23 22 21 21 20 19 17 16 16 15 15 15 15 15 13 12 12 10 9 8 9 9 10 11
19 19 18 16 15 14 13 12 12 13 14 15 16 17 17 18 19 20 20 20 20 18 18 17 17 16 15 15 15 14 13 13 12 11 10 9 8 7 7 7 8 8 9
21 20 19 18 17 15 13 11 10 10 11 13 14 14 15 16 16 17 18 18 18 18 18 17 16 15 13 13 12 12 12 11 10 9 8 7 6 6 6 6 6 6 7

GEFSMA_500_meanwind_054.txt.gz
Wind_Speed
30 31 29 31 30 29 26 24 22 20 18 16 14 13 12 11 11 11 10 10 10 10 9 9 8 7 7 6 5 4 3 3 2 1 1 2 2 3 4 4 5 5 6
32 30 31 31 33 33 31 27 26 24 22 20 19 17 15 15 14 13 12 12 11 11 11 10 9 8 8 7 6 5 4 4 3 3 3 4 4 5 6 6 7 8 8
36 34 33 33 33 34 33 31 30 28 26 24 22 21 20 18 18 17 15 14 13 13 12 11 11 10 9 8 7 6 6 6 6 6 6 6 7 7 8 9 9 10 10
39 38 36 35 34 33 33 33 31 31 30 28 26 24 23 22 22 21 19 18 16 16 15 14 13 12 11 10 10 9 9 8 8 9 9 9 9 10 10 11 11 12 12
41 40 38 37 35 33 32 32 31 32 31 31 30 28 27 26 26 25 23 21 20 19 18 17 16 15 14 14 13 12 11 11 11 11 12 12 12 12 12 13 13 14 14
41 41 39 39 37 34 33 32 32 33 32 32 32 31 31 30 29 28 27 25 23 22 21 20 19 18 17 16 16 15 14 14 14 14 14 14 14 15 15 15 15 16 16
41 41 41 40 37 36 34 34 33 33 32 32 32 32 32 32 32 31 30 28 27 25 24 22 21 20 20 19 18 18 17 17 16 16 17 17 17 17 17 17 18 18 18
40 41 41 40 38 37 36 35 34 33 33 32 31 32 33 33 33 32 32 30 30 29 27 25 24 23 22 21 21 20 20 20 19 19 19 19 19 20 20 20 20 20 20
39 40 39 40 39 38 37 36 36 36 34 33 33 32 33 34 35 34 33 32 31 30 29 28 27 26 25 24 24 23 22 22 22 21 21 21 21 22 22 22 22 22 22
37 38 38 39 38 38 37 36 36 36 35 35 34 34 34 34 35 36 36 35 34 32 31 30 29 28 27 26 26 26 25 24 23 23 23 23 23 23 24 24 24 24 24
34 35 37 38 37 38 38 38 36 36 35 35 35 34 34 35 35 36 36 36 35 33 32 31 31 30 29 28 28 27 26 26 25 25 24 24 24 24 25 25 25 25 25
29 32 34 36 37 37 37 38 38 36 36 35 36 35 35 36 36 36 36 36 35 34 33 33 32 32 30 29 28 28 28 27 26 26 25 25 25 25 26 26 26 26 26
26 29 31 33 35 36 36 37 38 37 37 36 36 35 36 36 35 36 37 37 36 35 33 32 32 32 32 30 29 28 27 27 26 26 26 26 26 26 26 26 26 26 27
20 23 27 30 32 34 35 36 37 37 37 37 37 37 37 38 37 36 37 37 36 36 35 33 32 32 31 30 29 29 28 28 27 26 27 27 27 27 27 27 27 28 28
14 17 21 25 29 32 33 35 36 36 37 37 38 38 38 36 37 38 38 38 37 38 37 35 34 34 33 32 30 30 30 30 29 29 29 28 28 28 28 28 29 29 30
10 13 16 21 24 27 31 34 35 36 36 37 38 38 40 38 36 38 39 40 39 38 37 36 34 34 34 32 32 31 31 30 29 29 29 30 30 30 30 31 31 31 32
8 9 12 16 20 22 26 30 33 34 36 37 38 37 37 38 37 38 39 40 39 38 36 34 34 34 34 33 33 33 32 31 30 30 31 31 31 31 31 31 31 31 31
7 7 7 11 14 17 21 25 27 30 32 35 35 35 36 37 38 37 36 36 37 37 36 34 33 33 32 32 31 31 32 32 31 31 31 30 30 30 30 30 30 29 28
8 5 5 7 10 13 16 20 23 26 29 31 31 32 32 34 36 36 35 34 34 35 35 35 33 32 31 30 30 29 29 28 28 28 28 27 27 28 28 28 27 26 27
10 7 5 5 7 10 12 15 20 23 25 27 28 29 30 32 34 34 33 33 33 33 33 33 33 32 31 31 29 28 28 27 26 26 26 25 25 25 25 25 25 25 25
12 10 8 7 6 8 11 13 16 19 22 24 25 26 27 29 31 31 31 31 31 31 31 31 32 31 31 30 28 27 26 26 25 25 26 25 25 25 24 24 23 22 20
13 12 10 9 8 9 10 12 15 17 20 21 23 24 26 27 28 29 29 29 29 29 29 29 29 29 28 28 27 27 26 26 26 26 26 25 25 24 23 22 20 18 16
16 14 13 11 10 10 10 11 13 16 18 20 21 23 23 25 26 27 27 27 27 28 28 28 28 27 26 26 27 27 26 26 25 24 23 23 23 21 19 18 17 16 15
18 17 15 14 13 11 10 10 11 14 16 18 19 21 22 23 24 25 25 25 26 27 27 27 26 26 24 24 23 23 23 23 23 22 21 21 19 18 17 16 15 15 13
20 19 18 16 15 13 11 9 10 11 13 16 17 18 20 21 22 23 24 24 24 24 24 24 24 23 24 23 22 22 21 21 20 20 19 18 17 17 15 14 14 13 12
22 21 20 19 17 14 11 9 8 8 10 14 16 17 18 20 21 21 22 22 22 22 21 21 21 21 21 21 21 20 20 19 18 18 17 17 16 15 14 14 13 11 10

GEFSMA_500_meanwind_060.txt.gz
Wind_Speed
30 29 29 28 26 25 23 23 23 22 20 19 17 16 13 11 11 10 10 9 9 9 9 8 8 8 7 7 6 5 5 4 4 4 3 3 3 3 2 2 2 2 2
33 32 30 30 29 28 27 26 26 26 25 23 21 20 18 16 14 13 12 12 11 10 10 9 9 8 8 7 6 6 5 4 3 3 2 2 1 1 1 2 2 3 3
39 37 35 33 32 31 30 29 27 27 27 26 25 24 23 21 19 17 15 14 14 13 12 11 10 10 9 8 7 6 5 4 3 2 2 1 1 1 2 3 3 4 5
42 42 40 38 36 34 32 31 29 28 28 29 28 28 28 26 24 22 19 17 16 15 15 14 13 12 11 10 9 8 7 6 5 4 4 4 4 4 4 5 5 6 6
43 43 42 41 40 38 36 33 31 29 30 31 31 31 31 30 28 26 24 21 19 18 17 16 15 14 13 12 11 10 9 8 8 7 7 7 7 7 7 7 8 8 9
42 42 42 42 42 40 38 36 34 32 31 31 31 33 33 33 32 30 28 26 24 22 20 19 18 17 16 15 14 13 12 11 11 10 10 10 9 10 10 10 11 11 11
41 42 42 42 42 41 40 38 37 34 32 29 30 33 35 36 35 33 32 30 28 26 24 22 21 20 19 18 17 16 15 14 14 13 13 12 12 12 13 13 13 14 14
39 40 41 42 42 42 42 41 39 37 35 33 31 32 34 36 37 35 34 33 31 29 28 26 24 23 22 21 20 19 18 17 16 16 15 15 15 15 15 15 16 16 17
36 38 40 42 42 42 42 42 42 40 38 36 33 33 33 34 36 37 36 35 34 32 31 29 27 26 25 24 23 22 21 20 19 19 18 18 17 17 17 17 17 18 18
31 34 37 40 41 42 42 41 41 41 41 39 36 34 33 32 34 36 38 37 36 35 34 32 31 29 28 27 26 25 24 23 22 21 21 20 20 19 19 19 19 19 20
28 30 33 36 39 41 41 41 41 41 42 41 39 37 35 34 33 36 37 37 37 37 36 35 34 32 31 30 29 28 27 26 25 24 23 23 22 22 21 21 21 21 21
26 28 30 32 35 38 40 41 41 42 42 42 41 40 39 38 36 36 36 37 38 38 38 36 35 34 33 33 31 30 29 28 27 25 25 24 23 23 23 22 22 22 22
21 23 25 28 31 34 36 39 41 41 43 43 42 42 42 41 39 38 38 37 37 38 37 37 36 36 36 34 33 32 31 29 28 27 26 26 25 25 24 23 23 23 23
16 18 21 24 26 29 32 35 38 41 43 44 43 43 43 42 41 40 39 38 37 38 38 38 38 37 37 35 33 33 32 31 29 29 28 27 26 25 25 25 25 24 25
12 15 17 20 23 26 29 32 36 39 42 44 44 43 45 44 44 42 41 40 39 39 39 39 39 39 38 36 35 34 33 31 31 30 30 29 28 27 27 27 26 26 26
10 12 14 17 20 22 25 29 33 36 39 42 43 43 43 44 45 45 44 43 41 41 40 39 38 39 38 37 37 35 34 32 32 31 30 30 29 29 28 28 28 28 27
10 10 12 14 17 19 22 25 29 33 36 39 41 42 42 42 44 44 45 44 42 43 41 40 40 40 40 38 37 36 36 35 34 33 32 31 30 30 30 29 27 27 27
12 11 10 11 13 16 18 22 26 29 32 36 39 41 41 41 42 44 43 42 42 43 42 41 41 41 40 39 38 37 36 36 35 33 33 32 31 30 29 28 26 26 27
13 12 11 11 11 13 15 18 21 26 29 31 34 36 38 40 40 41 42 42 41 42 41 40 40 40 41 40 39 38 38 37 36 35 34 33 31 29 28 27 27 27 27
16 14 13 12 11 11 12 14 17 20 24 28 29 31 33 37 38 38 39 40 40 40 40 40 40 39 39 40 40 39 38 37 35 33 33 32 31 29 28 27 26 26 26
18 17 15 14 13 12 12 13 15 18 21 25 27 28 30 31 33 35 36 37 39 40 40 40 40 40 39 39 38 37 36 34 33 32 31 30 29 27 27 27 26 25 24
20 19 17 15 14 13 12 12 14 16 19 21 24 25 27 28 28 30 32 33 35 37 38 38 38 37 36 36 37 36 34 33 32 31 30 28 27 26 26 26 25 24 23
22 21 19 17 15 14 13 12 11 13 16 18 20 22 25 27 27 29 29 29 31 33 33 34 35 35 35 35 34 33 33 31 30 28 28 28 27 26 26 25 24 23 22
24 23 22 20 17 15 12 11 10 10 13 15 18 19 21 24 25 25 26 26 27 28 28 30 32 32 31 31 31 31 30 28 27 27 27 26 26 25 25 24 22 22 21
25 25 23 22 19 16 13 11 8 7 9 12 15 17 19 21 22 22 22 22 23 24 25 26 25 25 25 25 25 25 26 26 26 25 25 25 25 24 23 22 21 20 19
27 26 25 23 21 18 14 11 8 6 6 8 11 14 16 18 19 19 20 21 21 22 23 23 22 22 23 23 23 23 24 25 25 24 23 23 22 21 20 20 19 19 18

GEFSMA_500_meanwind_066.txt.gz
Wind_Speed
34 32 30 29 28 27 26 25 23 21 20 19 18 16 15 13 12 11 11 11 11 11 11 11 11 11 11 11 10 10 9 9 9 8 8 8 7 7 6 5 5 4 3
40 37 34 33 31 30 29 28 26 24 23 22 21 20 18 16 15 14 13 13 13 12 13 13 12 12 12 12 11 10 10 9 9 8 8 8 8 7 6 5 4 4 3
42 41 39 38 35 33 31 30 29 27 27 25 23 24 22 20 19 17 16 16 15 15 15 14 14 13 13 12 12 11 11 10 9 9 8 8 7 6 6 5 4 4 4
43 43 42 42 40 38 36 34 32 31 30 29 26 25 26 24 23 20 19 18 18 17 17 16 16 15 14 14 13 12 12 11 10 9 9 8 7 7 6 5 5 5 5
43 44 44 44 44 43 40 38 37 34 32 31 30 28 27 27 27 25 23 22 21 20 19 19 18 17 16 16 15 14 13 12 11 10 10 9 8 8 7 7 7 7 7
39 42 43 44 44 44 44 42 39 38 36 33 31 30 29 29 29 28 27 26 24 23 23 21 21 20 19 18 17 16 15 14 13 12 11 10 9 8 8 8 8 9 9
36 38 41 42 43 45 46 45 43 41 39 38 35 33 32 31 31 32 31 29 29 27 26 25 24 23 22 21 19 18 17 16 15 14 13 12 11 10 10 10 10 11 11
33 35 38 40 42 43 45 45 45 44 42 41 38 36 35 33 32 33 34 33 32 31 30 28 27 25 24 23 22 21 20 19 18 17 16 15 14 13 12 12 12 12 13
29 32 34 37 40 42 43 44 44 44 44 43 41 39 37 35 34 35 34 35 35 34 34 32 31 29 28 27 25 24 22 21 20 19 18 17 16 15 15 14 14 15 15
26 28 31 33 36 39 42 43 43 43 44 44 42 41 40 38 36 35 35 36 37 37 37 35 34 33 31 30 28 27 25 24 23 22 21 20 19 18 17 17 17 17 17
21 25 27 30 34 36 39 41 42 43 43 44 43 43 42 41 40 37 35 36 37 38 38 38 37 36 35 33 32 30 28 27 26 25 24 23 22 21 20 20 19 19 19
18 20 24 27 30 33 36 39 41 42 43 43 44 44 43 42 41 41 39 38 38 40 40 40 40 39 37 36 34 33 31 29 28 27 26 26 24 24 23 22 21 21 21
15 18 20 23 26 29 32 35 39 41 42 44 45 45 44 44 43 43 42 40 39 40 41 41 42 42 40 38 36 35 34 32 31 29 28 28 27 26 25 24 23 23 23
12 13 16 19 22 26 29 32 35 38 40 42 44 46 46 46 46 45 44 43 42 42 42 41 42 42 42 40 39 38 37 35 33 31 30 29 28 28 27 26 25 25 24
12 11 13 16 19 22 26 30 33 36 38 40 42 44 45 47 47 47 46 45 45 44 43 42 42 43 43 42 40 40 38 37 35 34 33 32 30 30 29 28 27 26 25
13 12 12 13 16 19 23 26 30 33 36 38 40 42 43 45 47 48 47 47 47 46 45 43 42 42 43 43 42 41 40 39 38 35 33 33 32 31 30 29 28 27 27
15 14 13 13 14 16 19 22 26 29 32 35 38 40 42 44 46 48 48 48 49 48 45 44 43 44 44 43 42 42 40 40 39 37 35 34 33 32 31 30 29 29 28
17 15 14 14 14 15 17 20 22 26 29 32 35 37 39 42 44 46 48 49 49 49 47 46 44 44 43 42 42 42 41 39 39 38 37 36 34 32 32 31 31 30 29
19 18 16 16 15 16 17 18 20 23 26 30 32 35 37 39 42 44 46 47 47 47 47 47 46 45 43 43 42 41 41 41 39 38 38 36 35 35 34 33 32 31 31
21 20 19 18 17 16 15 16 18 20 23 27 29 32 35 37 39 41 43 46 46 45 44 44 46 47 45 45 44 42 41 41 40 39 38 37 37 36 35 33 33 32 30
23 22 21 20 18 16 15 14 15 17 20 23 26 29 31 34 36 38 40 42 45 45 44 43 44 46 46 45 45 43 41 41 40 39 38 37 36 36 35 35 34 33 31
25 24 23 21 19 17 15 13 13 14 16 19 22 25 28 31 33 35 36 38 40 42 42 42 42 42 44 45 43 43 42 42 41 40 39 38 36 36 36 35 34 33 30
26 26 24 23 21 18 16 14 12 12 13 15 18 21 23 27 30 32 34 36 37 37 38 39 40 40 41 42 42 42 41 41 40 40 40 39 38 37 36 35 33 30 29
27 27 25 24 22 20 18 15 12 10 11 13 15 17 20 23 27 30 31 33 35 34 34 36 36 36 38 39 41 40 39 39 39 40 39 37 37 37 36 33 31 29 28
28 28 27 25 23 21 20 17 14 11 10 10 12 14 17 20 23 25 28 30 32 33 32 33 33 33 34 36 37 39 38 38 38 37 37 37 36 34 33 31 28 27 26
29 28 27 26 24 22 20 18 15 12 9 8 9 11 13 16 19 21 23 26 29 30 30 31 32 32 33 35 36 37 37 37 37 37 37 35 34 32 30 29 27 26 24

GEFSMA_500_meanwind_072.txt.gz
Wind_Speed
38 37 35 34 33 34 31 29 28 25 25 24 21 20 18 17 16 14 14 13 13 13 13 13 13 13 13 13 12 12 11 10 10 10 10 9 9 8 7 7 6 5 4
37 38 37 36 35 35 33 31 29 27 25 24 22 22 20 19 18 17 16 14 14 14 14 14 14 14 14 14 13 12 12 12 11 11 10 9 9 8 8 7 6 4 3
34 36 36 37 36 36 35 32 31 30 28 25 25 24 23 22 21 19 18 17 16 15 16 15 15 15 16 15 14 14 13 13 12 11 11 10 9 8 8 7 5 5 4
32 33 34 35 36 36 37 35 33 31 29 28 27 26 25 24 23 21 20 19 18 17 17 17 17 17 16 16 15 15 14 14 13 12 11 11 10 9 8 7 6 5 5
29 31 32 33 35 36 36 36 35 34 32 31 30 28 26 26 26 24 22 22 21 19 19 19 19 18 18 17 17 16 16 15 14 13 12 11 11 10 9 8 7 6 6
27 29 30 32 32 33 34 35 36 35 35 33 31 30 28 27 27 26 25 24 23 22 22 21 21 21 20 19 18 18 17 16 15 14 13 12 11 10 10 9 8 8 8
24 26 28 29 30 31 32 33 35 36 35 34 33 33 31 29 27 28 28 27 26 25 24 24 24 23 22 21 20 19 19 18 17 16 14 13 12 11 11 10 9 9 9
20 22 24 26 28 29 31 32 33 35 36 35 35 35 34 31 30 30 29 29 29 29 27 26 26 25 24 24 23 22 21 20 19 18 17 15 14 13 12 11 11 11 11
17 19 21 23 25 27 29 31 32 34 35 36 37 36 35 34 33 33 32 32 31 31 31 30 30 28 27 26 25 24 24 22 21 20 19 18 16 15 14 13 13 13 12
14 16 19 21 22 24 27 29 31 32 33 35 37 38 37 36 36 35 35 34 33 33 33 32 32 32 31 29 28 27 27 25 24 23 22 21 19 18 17 16 15 15 15
12 13 15 18 20 22 24 27 30 31 33 34 36 37 38 38 38 38 37 36 36 35 35 35 34 33 33 33 31 30 29 28 27 26 25 24 22 21 19 19 18 17 17
13 13 13 15 17 20 22 24 27 30 32 34 36 36 37 38 39 39 39 40 38 37 37 37 36 35 34 34 33 33 32 31 30 29 27 26 25 23 22 21 21 20 20
13 13 14 14 15 18 20 22 25 28 30 32 34 36 37 38 38 40 41 41 41 40 38 38 38 37 36 36 35 35 35 34 33 32 30 29 28 26 25 24 24 23 22
15 14 14 14 15 17 19 22 24 26 28 31 33 35 36 38 38 40 41 41 41 41 41 39 38 38 38 37 36 37 37 36 35 35 33 32 31 29 28 27 26 25 24
16 15 14 15 15 16 18 20 22 25 27 29 32 34 35 37 39 40 41 42 41 41 41 41 42 40 40 40 38 38 39 39 39 38 36 35 34 32 31 29 28 27 26
18 16 16 16 15 16 17 18 20 23 25 27 30 32 34 36 38 39 41 42 42 42 42 41 42 43 41 40 40 41 40 39 39 39 38 37 36 34 33 32 31 30 29
20 18 18 17 17 16 16 17 19 21 23 26 28 30 32 34 36 37 39 41 42 43 42 41 42 42 43 41 41 42 43 42 40 40 39 39 38 37 35 34 33 32 31
23 21 20 19 18 17 17 16 17 19 20 23 25 27 29 32 34 36 38 40 41 42 43 42 43 43 43 43 42 43 43 43 42 42 41 39 39 38 37 36 35 34 33
24 24 23 21 20 19 18 17 16 17 18 20 22 24 26 29 31 34 36 38 39 41 42 43 43 44 43 44 43 43 43 42 42 42 42 41 40 38 38 37 37 36 35
25 25 24 23 22 21 19 18 16 16 17 18 19 21 23 26 29 31 33 35 37 39 41 42 43 44 44 44 44 44 44 44 43 42 42 42 41 40 39 38 37 37 35
25 25 25 25 24 23 21 19 17 16 16 16 17 19 21 24 26 29 31 33 35 37 39 40 41 42 43 45 45 45 46 46 46 43 42 42 42 41 41 40 38 37 36
26 26 26 26 25 24 22 20 18 16 15 14 15 16 18 21 24 26 28 31 33 35 36 37 39 40 41 43 44 45 45 46 45 43 42 42 42 42 41 40 39 38 36
26 26 26 26 26 25 24 21 19 17 15 13 12 14 16 18 21 23 26 29 31 33 34 35 37 38 39 41 42 43 44 44 43 43 43 43 43 43 42 41 39 38 37
26 26 26 27 27 26 25 23 21 18 16 14 12 13 14 15 18 20 23 25 27 29 31 33 35 36 37 38 39 40 40 41 42 42 42 42 41 41 40 41 40 39 38
26 26 26 26 26 26 25 24 22 20 17 16 14 13 12 13 14 16 19 22 25 27 30 31 33 34 35 36 37 39 38 38 38 39 40 40 40 40 40 39 38 37 37
26 26 26 26 26 26 25 24 23 21 19 17 15 13 12 11 12 13 15 18 20 23 26 28 30 32 33 33 34 36 36 36 37 38 39 39 39 39 39 38 37 36 36

GEFSMA_500_meanwind_078.txt.gz
Wind_Speed
33 33 34 33 33 32 32 31 29 28 27 26 25 25 23 21 21 20 19 18 16 16 16 16 15 15 15 15 14 14 14 14 13 13 13 12 12 12 11 9 8 7 6
31 32 34 34 33 33 33 33 31 29 29 28 28 27 26 25 23 23 21 19 18 17 17 17 17 16 16 16 15 15 15 14 14 14 13 13 12 11 11 10 9 8 7
28 30 31 32 33 32 33 33 33 31 31 30 30 29 28 27 26 25 24 22 20 19 18 18 18 18 17 17 17 16 16 15 15 14 14 13 12 12 11 10 9 8 7
26 27 29 30 30 31 31 33 34 33 32 32 30 30 30 29 28 27 24 23 22 21 20 19 19 19 18 18 19 18 17 16 16 15 14 14 13 12 11 10 10 9 7
22 25 26 27 28 29 29 31 32 33 32 32 31 31 30 30 30 29 26 24 23 23 22 21 20 21 20 20 20 19 18 18 17 16 15 15 14 13 12 11 11 9 8
18 21 23 25 26 27 28 29 30 31 32 33 33 31 31 30 31 30 29 27 25 25 24 23 22 22 22 21 21 21 20 19 18 17 16 16 15 14 13 12 11 10 9
13 15 18 21 23 25 26 28 28 30 31 32 33 32 32 31 31 31 32 31 29 27 26 25 25 24 24 23 23 22 22 21 20 19 18 17 16 15 14 14 13 12 11
9 11 14 16 19 22 24 26 27 28 29 31 32 33 33 32 32 33 33 33 32 31 29 28 28 27 26 25 25 24 24 23 22 21 20 19 18 17 16 15 14 14 12
9 8 10 13 15 18 20 23 25 26 28 30 31 32 33 33 33 33 34 34 34 33 32 31 30 30 28 27 27 26 26 25 24 23 22 21 20 19 18 17 16 15 14
9 8 9 10 12 14 17 20 23 25 27 29 30 31 32 33 32 33 35 35 35 35 35 34 32 32 31 30 30 29 28 28 26 25 25 24 22 21 20 19 18 17 16
11 9 8 9 11 12 15 18 20 23 26 28 30 30 32 33 33 33 34 35 36 36 36 36 35 34 34 33 33 32 32 31 30 28 27 26 25 24 23 22 20 19 18
14 12 10 9 9 10 12 15 18 20 23 27 29 31 32 33 34 35 36 36 36 37 37 37 38 37 37 36 34 35 34 34 33 32 31 29 28 27 26 25 23 22 21
17 14 12 10 9 9 10 13 16 18 21 24 27 30 32 33 35 36 37 38 38 38 39 39 39 39 39 39 37 37 37 37 36 35 34 33 31 30 29 28 26 25 24
19 17 14 12 11 10 10 11 13 16 19 22 25 28 30 32 34 36 38 39 40 40 40 40 41 41 40 40 40 39 38 39 39 38 37 36 34 33 32 31 29 28 26
20 18 16 14 12 11 11 11 12 14 17 20 23 25 28 31 33 35 37 40 41 42 42 41 42 43 43 43 41 41 41 42 42 41 40 39 38 37 34 33 32 30 29
21 19 18 17 15 14 13 12 11 12 14 17 20 23 26 28 31 33 35 38 40 42 42 43 43 44 44 45 45 44 42 42 42 42 41 40 39 38 37 36 34 33 32
21 20 19 18 18 16 15 14 13 12 13 15 18 21 24 27 29 32 34 36 39 41 42 43 45 45 45 46 46 46 47 45 44 43 43 42 41 40 40 38 37 36 35
21 20 20 19 19 18 17 16 14 13 12 13 15 18 21 24 27 30 32 34 38 40 41 43 45 46 47 46 47 47 46 47 47 46 46 45 43 42 42 41 40 38 37
21 21 20 20 20 20 19 18 16 15 13 13 14 16 18 21 24 27 30 33 35 38 40 42 45 46 47 47 47 47 47 47 46 46 46 46 45 44 43 41 40 39 38
21 21 21 21 21 20 20 19 17 16 14 13 13 14 16 19 21 24 28 31 33 35 37 39 42 45 46 47 47 47 47 47 46 47 46 46 45 45 45 43 42 40 39
21 21 21 21 21 21 21 20 19 17 15 14 14 13 14 16 18 20 23 27 30 32 34 36 39 42 44 44 45 46 47 46 46 46 46 46 46 45 45 44 43 41 41
21 21 21 21 22 22 21 20 19 18 17 15 14 14 13 13 15 17 20 22 26 29 32 33 36 39 41 43 44 45 47 47 46 47 46 45 45 45 43 43 43 42 41
21 21 21 21 21 21 21 20 20 18 17 16 15 14 13 13 13 14 16 19 22 25 28 30 33 35 38 41 43 44 45 47 46 47 48 46 45 44 44 44 43 42 42
22 21 21 21 21 21 21 20 20 18 17 17 15 14 13 13 13 13 14 16 19 22 24 27 29 32 35 38 40 43 43 45 46 47 48 47 45 45 45 44 44 43 43
22 22 21 21 21 21 21 20 20 19 18 17 16 15 14 14 13 12 12 14 16 20 22 24 27 29 32 34 36 38 40 41 43 44 45 46 46 45 45 45 45 44 44
23 23 22 22 22 21 21 20 20 19 19 18 17 16 15 14 14 12 12 12 13 16 19 22 24 26 28 31 33 34 36 38 40 40 42 43 44 45 45 44 44 44 43